Regional Weather Roundup
Issued by NWS

Home | Current Version | Previous Version | Graphics & Text | Print | Product List | Glossary On
Versions: 1 2 3 4 5 6 7 8 9 10 11 12 13 14 15 16 17 18 19 20 21 22 23 24 25 26 27 28 29 30 31 32 33 34 35 36 37 38 39 40 41 42 43 44 45 46 47 48 49 50
811
ASUS43 KLMK 290302
RWRKY
KENTUCKY REGIONAL WEATHER ROUNDUP
NATIONAL WEATHER SERVICE LOUISVILLE KY
1100 PM EDT WED JUN 28 2017

NOTE "FAIR" INDICATES FEW OR NO CLOUDS BELOW 12,000 FEET
WITH NO SIGNIFICANT WEATHER AND/OR OBSTRUCTIONS TO VISIBILITY.

KYZ001>023-026-027-061>063-070>075-290400-
WESTERN AND SOUTH CENTRAL KENTUCKY

CITY           SKY/WX    TMP DP  RH WIND       PRES   REMARKS
PADUCAH        CLEAR     76  64  66 S5        29.97R
HENDERSON      CLEAR     73  64  73 S7        29.99R
OWENSBORO      CLEAR     73  62  68 SE6       30.00R
HOPKINSVILLE   CLEAR     78  63  60 S5        30.01R
BOWLING GREEN  CLOUDY    74  61  63 S6        30.03R
GLASGOW        NOT AVBL
$$

KYZ024-025-028>034-038-045-046-053-290400-
NORTH CENTRAL KENTUCKY

CITY           SKY/WX    TMP DP  RH WIND       PRES   REMARKS
LOUISVILLE/SDF MOCLDY    74  57  55 S9        30.02R
LOUISVILLE/LOU CLOUDY    75  57  53 SE3       30.03R
FORT KNOX      PTCLDY    71  56  59 S6        30.02R
$$

KYZ035>037-039>044-047>052-055>060-089>105-290400-
NORTHEAST KENTUCKY

CITY           SKY/WX    TMP DP  RH WIND       PRES   REMARKS
LEXINGTON      CLOUDY    70  55  59 S6        30.06R
COVINGTON      CLOUDY    69  58  67 S6        30.03R
FRANKFORT      CLOUDY    70  54  56 S6        30.04R
$$

KYZ054-064>069-076>088-106>120-290400-
SOUTHEAST KENTUCKY

CITY           SKY/WX    TMP DP  RH WIND       PRES   REMARKS
JACKSON        CLEAR     69  57  65 CALM      30.10S
LONDON         CLEAR     67  56  67 S3        30.09S
SOMERSET       CLOUDY    64  57  77 CALM      30.09S
MIDDLESBORO    CLEAR     64  60  85 CALM      30.13S
MONTICELLO     CLEAR     61  59  93 VRB3      30.10
$$





USA.gov is the U.S. government's official web portal to all federal, state and local government web resources and services.